Weather Roundup
Issued by NWS

Home | Current Version | Previous Version | Graphics & Text | Print | Product List | Glossary Off
Versions: 1 2 3 4 5 6 7 8 9 10 11 12 13 14 15 16 17 18 19 20 21 22 23 24 25 26 27 28 29 30 31 32 33 34 35 36 37 38 39 40 41 42 43 44 45 46 47 48 49 50

000
NZUS93 KARX 190310
HRRWXR

CURRENT HOURLY OBSERVATIONS ACROSS
MUCH OF THE UPPER MISSISSIPPI VALLEY
NATIONAL WEATHER SERVICE LA CROSSE WI
900 PM CST THU JAN 18 2018


...SOUTHEAST MINNESOTA...


CITY           SKY/WX    TMP DP  RH WIND       PRES   REMARKS
ROCHESTER      FAIR      29  23  78 S15       29.79F WCI  18
ROCHESTER/MAYO FAIR      32  24  72 S10       29.80F WCI  23
WINONA         FAIR      32  23  69 CALM      29.82S
AUSTIN         NOT AVBL
ALBERT LEA     FAIR      28  21  74 SW8       29.81S WCI  20
DODGE CENTER   FAIR      28  23  80 S16       29.78F WCI  17
PRESTON        FAIR      27  21  79 SW13      29.82S WCI  16
OWATONNA       FAIR      30  27  86 S13       29.79R WCI  20
FARIBAULT      FAIR      30  27  86 S6        29.79S WCI  24
$$

...ELSEWHERE IN MINNESOTA...


CITY           SKY/WX    TMP DP  RH WIND       PRES   REMARKS
MINNEAPOLIS    CLOUDY    35  29  78 SW7       29.76F WCI  29
INTNL FALLS    CLOUDY    27  22  81 SW5       29.63F WCI  22
DULUTH         FAIR      23  21  92 W5        29.67F WCI  17
RED WING       FAIR      28  21  74 CALM      29.79S
REDWOOD FALLS  CLOUDY    32  28  85 SW10      29.75F WCI  24
MANKATO        FAIR      34  28  79 S9        29.78S WCI  27
WORTHINGTON    CLOUDY    35  28  75 SW16      29.78F WCI  25
FAIRMONT       CLOUDY    33  27  78 SW12      29.80F WCI  24
$$

...SOUTHWEST WISCONSIN...


CITY           SKY/WX    TMP DP  RH WIND       PRES   REMARKS
LA CROSSE      FAIR      30  21  69 S12       29.85F WCI  20
PRAIRIE DU CHI FAIR      30  18  62 S5        29.91F WCI  25
BOSCOBEL       FAIR      27  18  69 SW7       29.91F WCI  19
LONE ROCK      FAIR      19  14  81 CALM      29.91F
PLATTEVILLE    FAIR      24  19  81 S9        29.93S WCI  14
FORT MC COY    FAIR      31  22  70 S5        29.85F WCI  26
CAMP DOUGLAS   FAIR      30  20  66 SW7       29.83S WCI  23
MAUSTON-NEW LI FAIR      31  20  63 CALM      29.83F
VIROQUA        FAIR      27  21  78 SW10      29.85F WCI  18
WIS DELLS      FAIR      29  19  65 SW9G18    29.87R WCI  20
$$

...ELSEWHERE IN WISCONSIN...


CITY           SKY/WX    TMP DP  RH WIND       PRES   REMARKS
MILWAUKEE      MOCLDY    30  20  66 SW12G21   29.91S WCI  20
MADISON        FAIR      28  19  69 SW8       29.91S WCI  20
GREEN BAY      FAIR      26  18  71 S7        29.82S WCI  18
EAU CLAIRE     FAIR      27  22  81 S8        29.78S WCI  19
BLACK RVR FLS  FAIR      29  20  69 CALM      29.82S
MEDFORD        FAIR      27  20  77 SW7       29.75S WCI  19
WAUSAU         FAIR      28  20  71 SW6       29.76R WCI  22
WIS RAPIDS     FAIR      27  18  69 SW8       29.82S WCI  19
MARSHFIELD     FAIR      28  21  75 SW10      29.77F WCI  19
RICE LAKE      FAIR      24  21  87 CALM      29.76S
$$

...NORTHEAST IOWA...


CITY           SKY/WX    TMP DP  RH WIND       PRES   REMARKS
WATERLOO       FAIR      27  20  75 SW8       29.92F WCI  19
DUBUQUE        FAIR      28  19  69 SW14      29.91S WCI  17
DECORAH        FAIR      28  21  74 SW8G16    29.85F WCI  20
MASON CITY     CLOUDY    28  21  75 SW15      29.86F WCI  16
CHARLES CITY   FAIR      27  23  86 S9        29.87F WCI  17
OELWEIN        FAIR      27  25  93 S10       29.91F WCI  17
$$

...ELSEWHERE IN IOWA...


CITY           SKY/WX    TMP DP  RH WIND       PRES   REMARKS
DES MOINES     CLOUDY    32  22  66 SW12      29.94F WCI  23
IOWA CITY      FAIR      31  20  63 S8        29.99F WCI  23
FORT DODGE     CLOUDY    27  22  81 SW9       29.89F WCI  18
MARSHALLTOWN   CLOUDY    29  21  72 SW10      29.92F WCI  20
CEDAR RAPIDS   FAIR      28  21  75 S10       29.94S WCI  19
$$

...NORTHERN ILLINOIS...


CITY           SKY/WX    TMP DP  RH WIND       PRES   REMARKS
CHICAGO-OHARE  FAIR      31  20  63 SW10      29.97S WCI  22
CHICAGO-MIDWAY FAIR      31  21  66 SW12      29.99F WCI  22
MOLINE         FAIR      32  21  64 SW10      29.99R WCI  24
ROCKFORD       MOCLDY    31  19  61 SW8       29.99R WCI  23
PEORIA         FAIR      30  20  66 S10       30.05F WCI  21
$$

NOTE: "FAIR" INDICATES FEW OR NO CLOUDS BELOW 12,000 FEET WITH NO
SIGNIFICANT WEATHER AND/OR OBSTRUCTIONS TO VISIBILITY. WIND
SPEEDS ARE IN MILES-PER-HOUR.




USA.gov is the U.S. government's official web portal to all federal, state and local government web resources and services.